Weather History for KHSP - October, 2013

Change the Weather History Date:

Saturday, October 19, 2013

  Actual Average Record
Temperature  
Mean Temperature 46 °F -  
Max Temperature 53 °F 55 °F 69 °F (2005)
Min Temperature 39 °F 40 °F 26 °F (1996)
Degree Days  
Heating Degree Days 19    
Moisture  
Dew Point 45 °F    
Average Humidity 88    
Maximum Humidity 100    
Minimum Humidity 62    
Precipitation  
Precipitation 0.00 in - - ()
Sea Level Pressure  
Sea Level Pressure 29.96 in    
Wind  
Wind Speed 10 mph (SW)    
Max Wind Speed 22 mph    
Max Gust Speed 32 mph    
Visibility 10 miles    
Events      
Averages and records for this station are not official NWS values.
T = Trace of Precipitation, MM = Missing Value Source: NWS Daily Summary

Daily Weather History Graph

Daily Weather History Graph

Search for Another Location

Airport or City:

Trip Planner

Search our weather history database for the weather conditions in past years. The results will help you decide how hot, cold, wet, or windy it might be!

Date:

Astronomy

Oct. 19, 2013 Rise Set
Actual Time 7:31 AM EDT 6:35 PM EDT
Civil Twilight 7:05 AM EDT 7:02 PM EDT
Nautical Twilight 6:34 AM EDT 7:33 PM EDT
Astronomical Twilight 6:04 AM EDT 8:03 PM EDT
Moon 7:03 PM EDT (10/19) 8:06 AM EDT (10/19)
Length of Visible Light 11h 57m
Length of Day
11h 03m
Waxing Gibbous, 99% of the Moon is Illuminated
Oct 19
Waxing Gibbous
Oct 26
Last Quarter
Nov 3
New
Nov 10
First Quarter
Nov 17
Full

Hourly Weather History & Observations

Time (EDT) Temp. Windchill Dew Point Humidity Pressure Visibility Wind Dir Wind Speed Gust Speed Precip Events Conditions
12:15 AM 48.2 °F - 42.8 °F 82% 30.05 in 10.0 mi South 9.2 mph - N/A   Clear
12:35 AM 46.4 °F 41.5 °F 42.8 °F 87% 30.05 in 10.0 mi South 10.4 mph - N/A   Clear
12:55 AM 46.4 °F 41.9 °F 42.8 °F 87% 30.04 in 10.0 mi South 9.2 mph - N/A   Clear
1:15 AM 46.4 °F 41.9 °F 42.8 °F 87% 30.04 in 10.0 mi South 9.2 mph - N/A   Clear
1:35 AM 46.4 °F 41.5 °F 44.6 °F 93% 30.05 in 10.0 mi South 10.4 mph - N/A   Clear
1:55 AM 46.4 °F 42.9 °F 44.6 °F 93% 30.04 in 10.0 mi South 6.9 mph - N/A   Clear
2:15 AM 46.4 °F 41.5 °F 44.6 °F 93% 30.03 in 10.0 mi South 10.4 mph - N/A   Clear
2:35 AM 46.4 °F 42.4 °F 42.8 °F 87% 30.03 in 10.0 mi SSW 8.1 mph - N/A   Clear
2:55 AM 46.4 °F 43.5 °F 44.6 °F 93% 30.02 in 10.0 mi SSW 5.8 mph - N/A   Clear
3:15 AM 46.4 °F 44.3 °F 46.4 °F 100% 30.02 in 10.0 mi SSW 4.6 mph - N/A   Clear
3:35 AM 46.4 °F 44.3 °F 44.6 °F 93% 30.01 in 10.0 mi SSW 4.6 mph - N/A   Clear
3:55 AM 46.4 °F 42.9 °F 44.6 °F 93% 30.02 in 10.0 mi SW 6.9 mph - N/A   Scattered Clouds
4:15 AM 48.2 °F - 44.6 °F 87% 30.00 in 10.0 mi South 5.8 mph - N/A   Scattered Clouds
4:35 AM 46.4 °F 44.3 °F 44.6 °F 93% 30.00 in 10.0 mi SW 4.6 mph - N/A   Clear
4:55 AM 48.2 °F - 46.4 °F 93% 29.99 in 10.0 mi South 8.1 mph - N/A   Scattered Clouds
5:15 AM 48.2 °F - 46.4 °F 93% 29.98 in 10.0 mi South 6.9 mph - N/A   Clear
5:35 AM 46.4 °F 44.3 °F 46.4 °F 100% 29.98 in 10.0 mi SSW 4.6 mph - N/A   Clear
5:55 AM 48.2 °F - 46.4 °F 93% 29.98 in 10.0 mi South 4.6 mph - N/A   Clear
6:15 AM 46.4 °F 43.5 °F 46.4 °F 100% 29.98 in 10.0 mi South 5.8 mph - N/A   Clear
6:35 AM 48.2 °F - 46.4 °F 93% 29.99 in 10.0 mi SSW 6.9 mph - N/A   Scattered Clouds
6:55 AM 48.2 °F - 46.4 °F 93% 29.98 in 10.0 mi SSW 6.9 mph - N/A   Mostly Cloudy
7:15 AM 50.0 °F - 48.2 °F 94% 29.97 in 10.0 mi SSW 8.1 mph - N/A   Overcast
7:55 AM 48.2 °F - 48.2 °F 100% 29.98 in 5.0 mi SW 10.4 mph 16.1 mph N/A   Mostly Cloudy
8:15 AM 48.2 °F - 48.2 °F 100% 29.99 in 7.0 mi SSW 9.2 mph 18.4 mph N/A   Overcast
8:35 AM 48.2 °F - 48.2 °F 100% 29.99 in 10.0 mi SSW 8.1 mph 18.4 mph N/A   Overcast
8:55 AM 48.2 °F - 48.2 °F 100% 29.98 in 7.0 mi South 10.4 mph - N/A   Mostly Cloudy
9:15 AM 48.2 °F - 48.2 °F 100% 29.97 in 7.0 mi South 9.2 mph - N/A   Overcast
9:35 AM 48.2 °F - 48.2 °F 100% 29.99 in 7.0 mi South 12.7 mph 16.1 mph N/A   Overcast
9:55 AM 48.2 °F - 48.2 °F 100% 29.98 in 10.0 mi SSW 10.4 mph - N/A   Mostly Cloudy
10:15 AM 51.8 °F - 48.2 °F 88% 29.98 in 10.0 mi SW 6.9 mph - N/A   Scattered Clouds
10:35 AM 51.8 °F - 48.2 °F 88% 29.98 in 10.0 mi SSW 6.9 mph 16.1 mph N/A   Scattered Clouds
10:55 AM 51.8 °F - 48.2 °F 88% 29.98 in 10.0 mi SW 10.4 mph 18.4 mph N/A   Mostly Cloudy
11:15 AM 51.8 °F - 48.2 °F 88% 29.97 in 10.0 mi SW 9.2 mph - N/A   Mostly Cloudy
11:35 AM 51.8 °F - 48.2 °F 88% 29.97 in 10.0 mi SSW 8.1 mph - N/A   Mostly Cloudy
11:55 AM 51.8 °F - 48.2 °F 88% 29.96 in 10.0 mi South 6.9 mph - N/A   Overcast
12:15 PM 51.8 °F - 48.2 °F 88% 29.94 in 10.0 mi South 6.9 mph - N/A   Mostly Cloudy
12:35 PM 51.8 °F - 48.2 °F 88% 29.93 in 10.0 mi South 8.1 mph - N/A   Mostly Cloudy
12:55 PM 51.8 °F - 48.2 °F 88% 29.92 in 10.0 mi South 6.9 mph - N/A   Mostly Cloudy
2:16 PM - - - N/A% 29.90 in 10.0 mi WSW 10.4 mph - N/A   Overcast
2:55 PM 53.6 °F - 48.2 °F 82% 29.90 in 10.0 mi WSW 11.5 mph - N/A   Scattered Clouds
3:15 PM 53.6 °F - 48.2 °F 82% 29.90 in 10.0 mi West 13.8 mph - N/A   Mostly Cloudy
3:35 PM 53.6 °F - 46.4 °F 77% 29.89 in 10.0 mi WSW 15.0 mph - N/A   Mostly Cloudy
3:55 PM 51.8 °F - 44.6 °F 76% 29.89 in 10.0 mi West 16.1 mph 24.2 mph N/A   Mostly Cloudy
4:15 PM 51.8 °F - 44.6 °F 76% 29.88 in 10.0 mi West 15.0 mph 21.9 mph N/A   Mostly Cloudy
4:35 PM 51.8 °F - 44.6 °F 76% 29.89 in 10.0 mi West 18.4 mph 23.0 mph N/A   Scattered Clouds
4:55 PM 51.8 °F - 44.6 °F 76% 29.89 in 10.0 mi West 11.5 mph 23.0 mph N/A   Mostly Cloudy
5:15 PM 53.6 °F - 42.8 °F 67% 29.89 in 10.0 mi West 13.8 mph 23.0 mph N/A   Scattered Clouds
5:35 PM 51.8 °F - 39.2 °F 62% 29.89 in 10.0 mi West 16.1 mph 21.9 mph N/A   Scattered Clouds
5:55 PM 50.0 °F - 39.2 °F 66% 29.90 in 10.0 mi West 19.6 mph 27.6 mph N/A   Mostly Cloudy
6:15 PM 50.0 °F - 39.2 °F 66% 29.90 in 10.0 mi West 15.0 mph 21.9 mph N/A   Overcast
6:35 PM 48.2 °F - 39.2 °F 71% 29.90 in 10.0 mi West 17.3 mph 23.0 mph N/A   Mostly Cloudy
6:55 PM 48.2 °F - 41.0 °F 76% 29.90 in 10.0 mi West 17.3 mph 28.8 mph N/A   Overcast
7:15 PM 48.2 °F - 42.8 °F 82% 29.91 in 10.0 mi West 17.3 mph 25.3 mph N/A   Overcast
7:35 PM 46.4 °F 39.0 °F 42.8 °F 87% 29.91 in 7.0 mi West 19.6 mph 29.9 mph N/A   Light Drizzle
7:55 PM 44.6 °F 37.4 °F 42.8 °F 93% 29.92 in 10.0 mi West 16.1 mph 27.6 mph N/A   Overcast
8:15 PM 44.6 °F 36.9 °F 42.8 °F 93% 29.92 in 10.0 mi West 18.4 mph 26.5 mph N/A   Overcast
8:35 PM 44.6 °F 36.4 °F 42.8 °F 93% 29.92 in 10.0 mi West 20.7 mph 32.2 mph N/A   Overcast
8:55 PM 44.6 °F 36.1 °F 42.8 °F 93% 29.92 in 10.0 mi West 21.9 mph 29.9 mph N/A   Overcast
9:15 PM 44.6 °F 36.6 °F 42.8 °F 93% 29.92 in 10.0 mi West 19.6 mph 26.5 mph N/A   Overcast
9:35 PM 44.6 °F 36.4 °F 42.8 °F 93% 29.93 in 10.0 mi West 20.7 mph 29.9 mph N/A   Overcast
9:55 PM 44.6 °F 37.2 °F 42.8 °F 93% 29.93 in 10.0 mi West 17.3 mph 26.5 mph N/A   Overcast
10:15 PM 42.8 °F 34.5 °F 42.8 °F 100% 29.93 in 10.0 mi West 18.4 mph 25.3 mph N/A   Overcast
10:35 PM 42.8 °F 34.8 °F 41.0 °F 93% 29.92 in 10.0 mi WNW 17.3 mph 25.3 mph N/A   Overcast
10:55 PM 42.8 °F 34.0 °F 37.4 °F 81% 29.92 in 10.0 mi WNW 20.7 mph 28.8 mph N/A   Overcast
11:15 PM 39.2 °F 30.5 °F 37.4 °F 93% 29.92 in 10.0 mi West 16.1 mph 31.1 mph N/A   Mostly Cloudy
11:35 PM 39.2 °F 31.2 °F 35.6 °F 87% 29.93 in 10.0 mi WNW 13.8 mph 27.6 mph N/A   Overcast
11:55 PM 39.2 °F 30.8 °F 35.6 °F 87% 29.94 in 10.0 mi West 15.0 mph 21.9 mph N/A   Overcast